Weather History for Lancaster, OH

Change the Weather History Date:

Monday, March 11, 2013

  Actual Average Record
Temperature  
Mean Temperature 53 °F -  
Max Temperature 63 °F 50 °F 74 °F (1973)
Min Temperature 41 °F 26 °F 3 °F (1999)
Degree Days  
Heating Degree Days 12    
Growing Degree Days 3 (Base 50)    
Moisture  
Dew Point 40 °F    
Average Humidity 66    
Maximum Humidity 93    
Minimum Humidity 32    
Precipitation  
Precipitation 0.48 in - - ()
Sea Level Pressure  
Sea Level Pressure 29.76 in    
Wind  
Wind Speed 13 mph (SW)    
Max Wind Speed 22 mph    
Max Gust Speed 32 mph    
Visibility 8 miles    
Events Rain    
Averages and records for this station are not official NWS values.
T = Trace of Precipitation, MM = Missing Value Source: NWS Daily Summary

Daily Weather History Graph

Daily Weather History Graph

Search for Another Location

Airport:

Trip Planner

Search our weather history database for the weather conditions in past years. The results will help you decide how hot, cold, wet, or windy it might be!

Date:

Astronomy

Mar. 11, 2013 Rise Set
Actual Time 7:48 AM EDT 7:33 PM EDT
Civil Twilight 7:21 AM EDT 8:00 PM EDT
Nautical Twilight 6:49 AM EDT 8:31 PM EDT
Astronomical Twilight 6:18 AM EDT 9:03 PM EDT
Moon 7:21 AM EDT (3/11) 7:44 PM EDT (3/11)
Length of Visible Light 12h 39m
Length of Day
11h 45m
Waning Crescent, 0% of the Moon is Illuminated
Mar 11
Waning Crescent
Mar 11
New
Mar 19
First Quarter
Mar 27
Full
Apr 3
Last Quarter

Hourly Weather History & Observations

Time (EDT) Temp. Windchill Dew Point Humidity Pressure Visibility Wind Dir Wind Speed Gust Speed Precip Events Conditions
12:53 AM 63.0 °F - 33.1 °F 33% 29.88 in 10.0 mi South 15.0 mph - N/A   Clear
1:53 AM 62.1 °F - 32.0 °F 32% 29.87 in 10.0 mi South 11.5 mph 19.6 mph N/A   Scattered Clouds
2:53 AM 61.0 °F - 32.0 °F 34% 29.86 in 10.0 mi South 12.7 mph - N/A   Mostly Cloudy
3:53 AM 60.1 °F - 32.0 °F 35% 29.86 in 10.0 mi South 11.5 mph - N/A   Partly Cloudy
4:53 AM 57.0 °F - 35.1 °F 44% 29.85 in 10.0 mi South 6.9 mph - 0.00 in   Overcast
6:53 AM 55.0 °F - 33.1 °F 43% 29.85 in 10.0 mi SE 4.6 mph - N/A   Mostly Cloudy
7:53 AM 57.0 °F - 30.9 °F 37% 29.84 in 10.0 mi SSE 10.4 mph - N/A   Mostly Cloudy
8:53 AM 57.0 °F - 30.9 °F 37% 29.84 in 10.0 mi South 12.7 mph - N/A   Mostly Cloudy
9:53 AM 57.9 °F - 33.1 °F 39% 29.84 in 10.0 mi South 10.4 mph - N/A   Overcast
10:53 AM 55.9 °F - 37.9 °F 51% 29.82 in 10.0 mi South 9.2 mph - 0.00 in Rain Light Rain
11:53 AM 54.0 °F - 42.1 °F 64% 29.77 in 10.0 mi South 11.5 mph - 0.02 in Rain Light Rain
12:53 PM 54.0 °F - 44.1 °F 69% 29.76 in 7.0 mi South 15.0 mph - 0.01 in Rain Light Rain
1:53 PM 55.9 °F - 44.1 °F 64% 29.70 in 10.0 mi South 18.4 mph 32.2 mph 0.01 in   Overcast
2:53 PM 57.0 °F - 46.0 °F 67% 29.67 in 10.0 mi South 19.6 mph 27.6 mph 0.00 in   Overcast
3:53 PM 57.0 °F - 46.0 °F 67% 29.64 in 10.0 mi South 17.3 mph 25.3 mph 0.00 in Rain Light Rain
4:53 PM 55.9 °F - 48.9 °F 77% 29.62 in 6.0 mi South 16.1 mph 26.5 mph 0.04 in Rain Light Rain
5:51 PM 55.4 °F - 50.0 °F 82% 29.67 in 1.8 mi WSW 20.7 mph 32.2 mph 0.08 in Rain Heavy Rain
5:53 PM 54.0 °F - 50.0 °F 86% 29.66 in 1.0 mi West 18.4 mph 32.2 mph 0.15 in Rain Heavy Rain
5:57 PM 50.0 °F - 46.4 °F 87% 29.67 in 0.8 mi West 15.0 mph 32.2 mph 0.04 in Rain Heavy Rain
6:03 PM 50.0 °F - 46.4 °F 87% 29.67 in 1.2 mi West 15.0 mph 21.9 mph 0.07 in Rain Heavy Rain
6:21 PM 48.2 °F - 46.4 °F 93% 29.67 in 2.5 mi West 12.7 mph 18.4 mph 0.16 in Rain Rain
6:53 PM 48.0 °F - 45.0 °F 89% 29.69 in 7.0 mi WSW 11.5 mph - 0.22 in Rain Light Rain
7:02 PM 48.2 °F - 44.6 °F 87% 29.69 in 6.0 mi WSW 6.9 mph - 0.00 in Rain Light Rain
7:30 PM 46.4 °F 38.5 °F 42.8 °F 87% 29.72 in 5.0 mi West 21.9 mph 29.9 mph 0.03 in Rain Light Rain
7:38 PM 46.4 °F 39.2 °F 42.8 °F 87% 29.72 in 4.0 mi WSW 18.4 mph 28.8 mph 0.03 in Rain Light Rain
7:53 PM 46.9 °F - 42.1 °F 83% 29.73 in 10.0 mi WSW 15.0 mph 25.3 mph 0.03 in   Overcast
8:03 PM 46.4 °F 39.5 °F 41.0 °F 81% 29.73 in 10.0 mi WSW 17.3 mph 24.2 mph 0.00 in Rain Light Rain
8:53 PM 46.0 °F 41.0 °F 39.9 °F 79% 29.76 in 10.0 mi WSW 10.4 mph - 0.00 in   Overcast
9:53 PM 45.0 °F 39.7 °F 39.0 °F 80% 29.78 in 10.0 mi WSW 10.4 mph - N/A   Mostly Cloudy
10:27 PM 44.6 °F 38.8 °F 35.6 °F 71% 29.80 in 10.0 mi West 11.5 mph 21.9 mph N/A   Overcast
10:53 PM 43.0 °F 36.8 °F 34.0 °F 71% 29.83 in 10.0 mi WSW 11.5 mph 20.7 mph N/A   Overcast
11:53 PM 41.0 °F 35.2 °F 34.0 °F 76% 29.83 in 10.0 mi West 9.2 mph - N/A   Overcast